sat.trackr.live / text

‹ back to catalog

STARLINK-34107

NORAD 63960 · 2025-099J

PAYLOAD ACTIVE UNKNOWN

§ Identity

Operator
Country
US
Launch date
2025-05-13
Launch site
AFETR
Launch vehicle
Mass (kg)
RCS (m²)

Purposes: comms

External: N2YO · Heavens-Above · Gunter

§ Orbital elements

Epoch: 2026-05-25T04:22:13.834848Z

Period
94.27 min
Inclination
42.9987°
Eccentricity
0.0000805
Mean motion
15.27591177 rev/d
Perigee alt
482.5 km
Apogee alt
483.6 km
Semi-major
6,861.2 km
B*
4.5906e-4
RAAN
104.3326°
Arg perigee
260.1885°
Mean anomaly
99.8876°
Rev number
5,903

§ Raw data

STARLINK-341071 63960U 25099J   26145.18210457  .00012396  00000+0  45906-3 0  99922 63960  42.9987 104.3326 0000805 260.1885  99.8876 15.27591177 59036

JSON: /api/v1/satellites/63960 · /tle

For live sub-satellite position, see the globe view (requires WebGL).

§ Visibility from observer

Set your observer location to see the next 7 days of passes ≥ 10°. The values pass through the URL so the page stays shareable.

No JS? Fill the form by hand. The geolocation button needs JavaScript.